Regional Weather Roundup
Issued by NWS Northern Indiana

Home | Current Version | Previous Version | Graphics & Text | Print | Product List | Glossary On
Versions: 1 2 3 4 5 6 7 8 9 10 11 12 13 14 15 16 17 18 19 20 21 22 23 24 25 26 27 28 29 30 31 32 33 34 35 36 37 38 39 40 41 42 43 44 45 46 47 48 49 50
000
ASUS43 KIWX 181100
RWRIWX

KIWX WEATHER ROUNDUP
NATIONAL WEATHER SERVICE NORTHERN INDIANA
600 AM EST WED JAN 18 2017

NOTE: "FAIR" INDICATES FEW OR NO CLOUDS BELOW 12,000 FEET WITH NO
SIGNIFICANT WEATHER AND/OR OBSTRUCTIONS TO VISIBILITY.

* THESE STATIONS ARE NOT UNDER NWS QUALITY CONTROL. THEY ALSO MAY NOT
  REPORT WEATHER SUCH AS PRECIPITATION OR FOG.

INZ001>027-181200-
NORTHERN INDIANA

CITY           SKY/WX    TMP DP  RH WIND       PRES   REMARKS
GARY*          CLOUDY    36  34  93 W12G23    30.10R FOG
SOUTH BEND     CLOUDY    34  34 100 W8        30.08R FOG     WCI  27
GOSHEN         CLOUDY    34  31  88 W12       30.07R FOG     WCI  25
FORT WAYNE     DRIZZLE   35  33  92 W15       30.08R FOG     WCI  25
PERU/GRISSOM   CLOUDY    35  35 100 W16       30.09R WCI  24

$$
INZ028>050-181200-
CENTRAL INDIANA

CITY           SKY/WX    TMP DP  RH WIND       PRES   REMARKS
LAFAYETTE      CLOUDY    34  33  96 W9        30.14R WCI  27
KOKOMO*        MIX PCPN  35  33  92 W16       30.12R WCI  25
MUNCIE*        CLOUDY    37  34  89 W10       30.10R
INDIANAPOLIS   CLOUDY    37  34  89 W14       30.14R

$$
MIZ043>046-050>051-056>058-064>065-071>073-077>080-181200-
SOUTHWEST LOWER MICHIGAN

CITY           SKY/WX    TMP DP  RH WIND       PRES   REMARKS
BATTLE CREEK   CLOUDY    35  35 100 W8        30.02R FOG     WCI  29
BENTON HARBOR  CLOUDY    36  34  92 W13       30.06S FOG
COLDWATER*     CLOUDY    35  35 100 W8        30.03R FOG     WCI  28
HILLSDALE*     CLOUDY    32  32 100 W10       30.01R FOG     WCI  24
HOLLAND        CLOUDY    36  34  92 W7        30.03R
GRAND RAPIDS   FOG       35  34  96 W8        30.01R VSB 1/2 WCI  29
KALAMAZOO      CLOUDY    36  33  89 W8        30.04R FOG
STURGIS*       CLOUDY    34  33  99 W7        30.04R FOG     WCI  28
THREE RIVERS*  CLOUDY    35  35  99 W7        30.05R FOG     WCI  29

$$
OHZ001>008-015>018-024>025-181200-
NORTHWEST OHIO

CITY           SKY/WX    TMP DP  RH WIND       PRES   REMARKS
DEFIANCE       CLOUDY    37  32  82 W6        30.06R
FINDLAY        CLOUDY    37  33  85 W14       30.05R FOG
TOLEDO EXPRESS CLOUDY    35  35 100 W12       30.03R WCI  27
TOLEDO METCALF CLOUDY    37  35  92 W13       30.04R
LIMA           CLOUDY    36  34  92 W16       30.06R

$$
AND FOR LAKE MICHIGAN COASTAL AND OPEN LAKE BUOY OBSERVATIONS

STATION/POSITION TEMP    WIND        PRES    VSBY  WAVE
                 AIR SEA DIR/SP/G                  HT/PER
                 (F)     (DEG/KT/KT) (MB)    (MI)  (FT/S)
CALUMET HARBOR    34     230/  6/ 13 1018.4R
BURNS HARBOR      34     250/ 14/ 16 1019.6R

$$
&&




USA.gov is the U.S. government's official web portal to all federal, state and local government web resources and services.